Flag for Spain Weather past 2 weeks in Santa Cruz de Tenerife, Canary Islands, Spain

Now
68 °F

Passing clouds.


Feels Like: 68 °F
Forecast: 73 / 81 °F
Wind: 6 mph from South

Location: Tenerife / Los Rodeos

Current Time: Oct 25, 2014 at 8:49:03 PM

Latest Report: Oct 25, 2014 at 8:30 PM


Visibility: N/A

Pressure: 30.09 "Hg

Humidity: 49%

Dew point: 48 °F

Location of Santa Cruz de TenerifeLocation

Historic Weather in Santa Cruz de Tenerife — Graph

°F

Santa Cruz de Tenerife temperature yesterday

Maximum temperature yesterday: 82 °F (at 1:30 PM)
Minimum temperature yesterday: 70 °F (at 8:00 AM)
Average temperature yesterday: 77 °F

Past Weeks' High & Low Weather Summary

 TemperatureHumidityPressure
High88 °F (Oct 23, 1:00 PM)100% (Oct 11, 10:30 AM)30.27 "Hg (Oct 11, 10:30 AM)
Low57 °F (Oct 14, 6:00 AM)13% (Oct 23, 11:00 AM)29.80 "Hg (Oct 19, 3:30 PM)
Average68 °F70%30.09 "Hg
* Reported Oct 10 7:00 PM — Oct 25 7:30 PM, Santa Cruz de Tenerife, Weather by CustomWeather, © 2014

Note: Actual official high and low records may vary slightly from our data, if they occured in-between our weather recording intervals... More about our weather records

Advertising

Santa Cruz de Tenerife weather history for previous 24 hours

 ConditionsComfort  
Time TempWeatherWind HumidityBarometerVisibility
7:30 PM
Oct 25
70 °FPassing clouds.No wind64%30.09 "HgN/A
7:02 PM73 °FRain showers. Scattered clouds.1 mph65%30.09 "HgN/A
6:30 PM73 °FScattered clouds.2 mph61%30.09 "HgN/A
6:00 PM75 °FThundershowers. Scattered clouds.3 mph57%30.09 "HgN/A
5:30 PM75 °FThundershowers. Scattered clouds.No wind44%30.07 "HgN/A
5:00 PM75 °FThundershowers. Scattered clouds.2 mph44%30.07 "HgN/A
4:30 PM75 °FScattered clouds.3 mph36%30.09 "HgN/A
4:00 PM75 °FScattered clouds.2 mph41%30.09 "HgN/A
3:30 PM77 °FScattered clouds.5 mph39%30.07 "HgN/A
3:00 PM77 °FScattered clouds.6 mph34%30.09 "HgN/A
2:30 PM75 °FScattered clouds.3 mph41%30.09 "HgN/A
2:00 PM75 °FPassing clouds.3 mph39%30.09 "HgN/A
1:30 PM75 °FPassing clouds.6 mph36%30.12 "HgN/A
1:00 PM79 °FPassing clouds.5 mph30%30.12 "HgN/A
12:30 PM77 °FPassing clouds.2 mph32%30.12 "HgN/A
12:00 PM77 °FPassing clouds.3 mph36%30.12 "HgN/A
11:30 AM77 °FPassing clouds.3 mph30%30.12 "HgN/A
11:00 AM79 °FPassing clouds.2 mph30%30.12 "HgN/A
10:30 AM75 °FPassing clouds.1 mph36%30.12 "HgN/A
10:00 AM77 °FPassing clouds.1 mph32%30.09 "HgN/A
9:30 AM75 °FPassing clouds.1 mph34%30.09 "HgN/A
9:00 AM72 °FPassing clouds.1 mph36%30.09 "HgN/A
8:30 AM70 °FPassing clouds.1 mph35%30.07 "HgN/A
8:00 AM68 °FPassing clouds.3 mph43%30.07 "HgN/A
7:30 AM70 °FPassing clouds.1 mph33%30.07 "HgN/A
7:00 AM73 °FClear.2 mph29%30.07 "Hg10 mi
6:30 AM73 °FClear.3 mph29%30.07 "Hg10 mi
6:00 AM73 °FClear.3 mph29%30.07 "Hg10 mi
11:00 PM
Oct 24
72 °FClear.3 mph41%30.12 "Hg10 mi
10:30 PM73 °FClear.5 mph38%30.12 "Hg10 mi
10:00 PM73 °FClear.1 mph38%30.12 "Hg10 mi
9:30 PM72 °FClear.1 mph38%30.09 "Hg10 mi
9:00 PM72 °FClear.2 mph41%30.09 "Hg10 mi
8:30 PM72 °FClear.2 mph44%30.09 "Hg10 mi
8:00 PM73 °FSunny.2 mph41%30.09 "Hg10 mi
Weather by CustomWeather, © 2014

See weather overviewHow to use our weather pages